Iron Mountain, MI

8:04 AM CDT on September 19, 2017 (GMT -0500)
Ford

Weather History for KIMT - July, 2013

Change the Weather History Date:

Saturday, July 27, 2013

  Actual Average Record
Temperature  
Mean Temperature 54 °F -  
Max Temperature 61 °F 79 °F 94 °F (1931)
Min Temperature 48 °F 55 °F 38 °F (1937)
Degree Days  
Heating Degree Days 10    
Growing Degree Days 4 (Base 50)    
Moisture  
Dew Point 47 °F    
Average Humidity 82    
Maximum Humidity 94    
Minimum Humidity 62    
Precipitation  
Precipitation 0.17 in - - ()
Sea Level Pressure  
Sea Level Pressure 29.85 in    
Wind  
Wind Speed 8 mph (NW)    
Max Wind Speed 12 mph    
Max Gust Speed -    
Visibility 8 miles    
Events Rain    
Averages and records for this station are not official NWS values.
T = Trace of Precipitation, MM = Missing Value Source: NWS Daily Summary

Daily Weather History Graph

Daily Weather History Graph

Search for Another Location

Airport or City:

Trip Planner

Search our weather history database for the weather conditions in past years. The results will help you decide how hot, cold, wet, or windy it might be!

Date:

Astronomy

Jul. 27, 2013 Rise Set
Actual Time 5:29 AM CDT 8:27 PM CDT
Civil Twilight 4:54 AM CDT 9:02 PM CDT
Nautical Twilight 4:09 AM CDT 9:46 PM CDT
Astronomical Twilight 3:16 AM CDT 10:40 PM CDT
Moon 10:51 PM CDT (7/27) 11:31 AM CDT (7/27)
Length of Visible Light 16h 07m
Length of Day
14h 57m
Waning Gibbous, 70% of the Moon is Illuminated
Jul 27
Waning Gibbous
Jul 29
Last Quarter
Aug 6
New
Aug 14
First Quarter
Aug 20
Full

Hourly Weather History & Observations

Time (CDT) Temp. Dew Point Humidity Pressure Visibility Wind Dir Wind Speed Gust Speed Precip Events Conditions
12:04 AM 48.2 °F 44.6 °F 87% 29.91 in 10.0 mi NW 10.4 mph - N/A   Overcast
12:15 AM 48.2 °F 44.6 °F 87% 29.91 in 10.0 mi NW 11.5 mph - N/A   Overcast
12:54 AM 48.9 °F 44.1 °F 83% 29.91 in 10.0 mi NW 11.5 mph - N/A   Overcast
1:54 AM 48.0 °F 44.1 °F 86% 29.91 in 10.0 mi NW 10.4 mph - N/A   Overcast
2:34 AM 48.2 °F 44.6 °F 87% 29.89 in 10.0 mi NW 5.8 mph - N/A   Overcast
2:54 AM 48.0 °F 44.1 °F 86% 29.90 in 10.0 mi NW 5.8 mph - N/A   Overcast
3:54 AM 48.0 °F 44.1 °F 86% 29.89 in 10.0 mi NW 6.9 mph - N/A   Overcast
4:54 AM 48.0 °F 43.0 °F 83% 29.90 in 10.0 mi NW 9.2 mph - N/A   Overcast
5:37 AM 48.2 °F 42.8 °F 82% 29.89 in 10.0 mi WNW 6.9 mph - N/A   Overcast
5:54 AM 48.0 °F 42.1 °F 80% 29.90 in 10.0 mi WNW 4.6 mph - N/A   Overcast
6:54 AM 48.0 °F 42.1 °F 80% 29.90 in 10.0 mi NW 6.9 mph - N/A   Overcast
7:43 AM 48.2 °F 42.8 °F 82% 29.88 in 10.0 mi NW 5.8 mph - N/A   Overcast
7:54 AM 48.9 °F 42.1 °F 77% 29.89 in 10.0 mi West 5.8 mph - N/A   Overcast
8:33 AM 50.0 °F 42.8 °F 76% 29.87 in 10.0 mi WNW 8.1 mph - N/A   Overcast
8:54 AM 51.1 °F 43.0 °F 74% 29.89 in 10.0 mi WNW 4.6 mph - N/A   Overcast
9:49 AM 53.6 °F 42.8 °F 67% 29.86 in 10.0 mi NW 5.8 mph - N/A   Overcast
9:54 AM 53.1 °F 43.0 °F 69% 29.88 in 10.0 mi WNW 6.9 mph - N/A   Overcast
10:54 AM 57.0 °F 44.1 °F 62% 29.86 in 10.0 mi SSW 5.8 mph - N/A   Overcast
11:13 AM 55.4 °F 44.6 °F 67% 29.84 in 10.0 mi WNW 5.8 mph - 0.00 in Rain Light Rain
11:54 AM 55.9 °F 45.0 °F 67% 29.85 in 10.0 mi NNW 4.6 mph - 0.00 in   Overcast
12:01 PM 55.4 °F 44.6 °F 67% 29.83 in 10.0 mi NNW 3.5 mph - N/A   Overcast
12:54 PM 55.9 °F 46.0 °F 69% 29.85 in 10.0 mi Calm Calm - 0.00 in   Overcast
1:54 PM 59.0 °F 46.9 °F 64% 29.84 in 10.0 mi WSW 8.1 mph - N/A   Overcast
2:54 PM 59.0 °F 48.9 °F 69% 29.83 in 10.0 mi WSW 10.4 mph - N/A   Overcast
3:54 PM 61.0 °F 48.0 °F 62% 29.83 in 10.0 mi North 6.9 mph - N/A   Overcast
4:03 PM 57.2 °F 48.2 °F 72% 29.82 in 10.0 mi West 9.2 mph - N/A   Overcast
4:20 PM 55.4 °F 50.0 °F 82% 29.82 in 2.0 mi NNW 9.2 mph - 0.02 in Rain Rain
4:36 PM 55.4 °F 50.0 °F 82% 29.82 in 4.0 mi NW 3.5 mph - 0.03 in Rain Light Rain
4:51 PM 53.6 °F 51.8 °F 94% 29.82 in 2.5 mi North 10.4 mph - 0.06 in Rain Rain
4:54 PM 54.0 °F 50.0 °F 86% 29.84 in 1.5 mi NNE 8.1 mph - 0.08 in Rain Heavy Rain
5:14 PM 53.6 °F 51.8 °F 94% 29.82 in 3.0 mi North 6.9 mph - 0.08 in Rain Light Rain
5:27 PM 55.4 °F 51.8 °F 88% 29.82 in 8.0 mi North 6.9 mph - 0.08 in Rain Light Rain
5:54 PM 55.9 °F 51.1 °F 84% 29.83 in 10.0 mi North 6.9 mph - 0.08 in   Overcast
6:09 PM 55.4 °F 50.0 °F 82% 29.82 in 10.0 mi WNW 9.2 mph - 0.00 in Rain Light Rain
6:30 PM 53.6 °F 51.8 °F 94% 29.81 in 10.0 mi West 4.6 mph - 0.00 in   Overcast
6:54 PM 55.0 °F 50.0 °F 83% 29.84 in 10.0 mi WNW 3.5 mph - 0.00 in   Overcast
7:54 PM 54.0 °F 51.1 °F 90% 29.84 in 10.0 mi NNW 6.9 mph - 0.00 in Rain Light Rain
8:54 PM 53.1 °F 51.1 °F 93% 29.84 in 10.0 mi North 6.9 mph - 0.00 in   Overcast
9:05 PM 53.6 °F 51.8 °F 94% 29.83 in 10.0 mi NNW 8.1 mph - N/A   Overcast
9:16 PM 53.6 °F 50.0 °F 88% 29.83 in 10.0 mi NNW 6.9 mph - 0.00 in Rain Light Rain
9:44 PM 51.8 °F 50.0 °F 94% 29.83 in 6.0 mi North 9.2 mph - 0.00 in Rain Light Rain
9:54 PM 52.0 °F 48.9 °F 89% 29.85 in 4.0 mi North 9.2 mph - 0.00 in Rain Light Rain
10:16 PM 51.8 °F 48.2 °F 88% 29.83 in 3.0 mi North 10.4 mph - 0.00 in Rain Light Rain
10:26 PM 51.8 °F 48.2 °F 88% 29.83 in 3.0 mi North 6.9 mph - 0.01 in Rain Light Rain
10:50 PM 51.8 °F 48.2 °F 88% 29.82 in 5.0 mi North 5.8 mph - 0.01 in Rain Light Rain
10:54 PM 51.1 °F 48.9 °F 92% 29.83 in 8.0 mi North 5.8 mph - 0.01 in   Overcast
11:07 PM 51.8 °F 48.2 °F 88% 29.82 in 7.0 mi North 4.6 mph - N/A   Overcast
11:54 PM 52.0 °F 48.9 °F 89% 29.83 in 10.0 mi North 6.9 mph - N/A   Overcast